When you browse on this site, cookies collect data to enhance your experience and personalize the content and advertising you see.
Visit our Privacy Policy to learn more. By continuing to use the site, you agree to this use of cookies and data.
  • In United Kingdom
  • List of Countries
  • For 7 days
  • Water Temperature
  • Weather Map
  • Weather Widgets
  • user-avatar
    Login

    Hourly Weather Chrapowo

    Today, 31 May, Sunday

    Time Temperature Precipitation Wind Pressure Humidity
    00:00 +7°C° 0 mm 4 mps 757 mmHg 83%
    01:00 +7°C° 0 mm 4 mps 757 mmHg 83%
    02:00 +7°C° 0 mm 4 mps 756 mmHg 82%
    03:00 +8°C° 0 mm 4 mps 756 mmHg 82%
    04:00 +8°C° 0 mm 5 mps 756 mmHg 82%
    05:00 +9°C° 0.1 mm 5 mps 756 mmHg 82%
    06:00 +9°C° 0.1 mm 5 mps 756 mmHg 82%
    07:00 +10°C° 0.1 mm 5 mps 756 mmHg 82%
    08:00 +13°C° 0 mm 5 mps 756 mmHg 75%
    09:00 +15°C° 0 mm 5 mps 756 mmHg 68%
    10:00 +17°C° 0 mm 6 mps 756 mmHg 61%
    11:00 +19°C° 0 mm 6 mps 756 mmHg 59%
    12:00 +20°C° 0 mm 6 mps 757 mmHg 56%
    13:00 +21°C° 0 mm 6 mps 757 mmHg 53%
    14:00 +21°C° 0 mm 6 mps 757 mmHg 53%
    15:00 +21°C° 0 mm 6 mps 757 mmHg 54%
    16:00 +21°C° 0 mm 6 mps 757 mmHg 54%
    17:00 +19°C° 0 mm 6 mps 757 mmHg 58%
    18:00 +17°C° 0 mm 5 mps 757 mmHg 63%
    19:00 +15°C° 0 mm 5 mps 757 mmHg 68%
    20:00 +14°C° 0 mm 4 mps 758 mmHg 72%
    21:00 +12°C° 0 mm 4 mps 758 mmHg 76%
    22:00 +10°C° 0 mm 4 mps 759 mmHg 80%
    23:00 +9°C° 0 mm 3 mps 759 mmHg 82%

    Tomorrow, 1 June, Monday

    Time Temperature Precipitation Wind Pressure Humidity
    00:00 +9°C° 0 mm 3 mps 759 mmHg 85%
    01:00 +8°C° 0 mm 3 mps 759 mmHg 87%
    02:00 +8°C° 0 mm 3 mps 759 mmHg 88%
    03:00 +7°C° 0 mm 3 mps 759 mmHg 89%
    04:00 +7°C° 0 mm 3 mps 759 mmHg 90%
    05:00 +9°C° 0 mm 3 mps 759 mmHg 84%
    06:00 +11°C° 0 mm 3 mps 759 mmHg 78%
    07:00 +12°C° 0 mm 3 mps 760 mmHg 71%
    08:00 +14°C° 0 mm 4 mps 760 mmHg 65%
    09:00 +17°C° 0 mm 4 mps 760 mmHg 59%
    10:00 +18°C° 0 mm 4 mps 760 mmHg 53%
    11:00 +19°C° 0 mm 4 mps 760 mmHg 51%
    12:00 +20°C° 0 mm 4 mps 760 mmHg 48%
    13:00 +20°C° 0 mm 4 mps 760 mmHg 46%
    14:00 +20°C° 0 mm 5 mps 759 mmHg 48%
    15:00 +20°C° 0 mm 5 mps 759 mmHg 49%
    16:00 +20°C° 0 mm 5 mps 759 mmHg 50%
    17:00 +19°C° 0 mm 5 mps 759 mmHg 56%
    18:00 +17°C° 0 mm 5 mps 759 mmHg 61%
    19:00 +15°C° 0 mm 4 mps 758 mmHg 67%
    20:00 +14°C° 0 mm 4 mps 758 mmHg 71%
    21:00 +12°C° 0 mm 4 mps 759 mmHg 74%
    22:00 +10°C° 0 mm 3 mps 759 mmHg 78%
    23:00 +9°C° 0 mm 3 mps 758 mmHg 80%

    Day after tomorrow, 2 June, Tuesday

    Time Temperature Precipitation Wind Pressure Humidity
    00:00 +9°C° 0 mm 3 mps 758 mmHg 83%
    01:00 +8°C° 0 mm 3 mps 758 mmHg 85%
    02:00 +8°C° 0 mm 3 mps 757 mmHg 87%
    03:00 +8°C° 0 mm 3 mps 757 mmHg 89%
    04:00 +8°C° 0 mm 3 mps 757 mmHg 92%
    05:00 +10°C° 0 mm 3 mps 757 mmHg 85%
    06:00 +12°C° 0 mm 3 mps 757 mmHg 79%
    07:00 +14°C° 0 mm 3 mps 756 mmHg 73%
    08:00 +16°C° 0 mm 2 mps 756 mmHg 69%
    09:00 +18°C° 0 mm 2 mps 756 mmHg 64%
    10:00 +19°C° 0 mm 2 mps 756 mmHg 60%
    11:00 +19°C° 0.2 mm 2 mps 755 mmHg 61%
    12:00 +20°C° 0.2 mm 2 mps 755 mmHg 62%
    13:00 +20°C° 0.2 mm 2 mps 754 mmHg 63%
    14:00 +20°C° 0.2 mm 3 mps 754 mmHg 64%
    15:00 +20°C° 0.2 mm 4 mps 753 mmHg 65%
    16:00 +20°C° 0.2 mm 4 mps 752 mmHg 65%
    17:00 +19°C° 0 mm 4 mps 752 mmHg 68%
    18:00 +18°C° 0 mm 4 mps 752 mmHg 71%
    19:00 +18°C° 0 mm 4 mps 751 mmHg 74%
    20:00 +16°C° 0.1 mm 3 mps 751 mmHg 78%
    21:00 +14°C° 0.1 mm 3 mps 751 mmHg 81%
    22:00 +14°C° 0.1 mm 2 mps 751 mmHg 85%
    23:00 +14°C° 0.1 mm 2 mps 751 mmHg 86%

    3 June, Wednesday

    Time Temperature Precipitation Wind Pressure Humidity
    00:00 +13°C° 0.1 mm 2 mps 750 mmHg 86%
    01:00 +13°C° 0.1 mm 2 mps 750 mmHg 87%
    02:00 +13°C° 0.2 mm 2 mps 750 mmHg 90%
    03:00 +12°C° 0.2 mm 1 mps 750 mmHg 93%
    04:00 +12°C° 0.2 mm 1 mps 749 mmHg 95%
    05:00 +13°C° 0.1 mm 1 mps 749 mmHg 92%
    06:00 +14°C° 0.1 mm 1 mps 749 mmHg 90%
    07:00 +14°C° 0.1 mm 1 mps 749 mmHg 87%
    08:00 +16°C° 0.1 mm 1 mps 749 mmHg 81%
    09:00 +18°C° 0.1 mm 1 mps 749 mmHg 74%
    10:00 +19°C° 0.1 mm 1 mps 749 mmHg 68%
    11:00 +19°C° 0.2 mm 2 mps 748 mmHg 64%
    12:00 +20°C° 0.2 mm 2 mps 748 mmHg 59%
    13:00 +20°C° 0.2 mm 3 mps 748 mmHg 55%
    14:00 +21°C° 0.1 mm 3 mps 747 mmHg 53%
    15:00 +21°C° 0.1 mm 3 mps 747 mmHg 52%
    16:00 +21°C° 0.1 mm 3 mps 746 mmHg 50%
    17:00 +19°C° 0 mm 3 mps 746 mmHg 56%
    18:00 +18°C° 0 mm 3 mps 746 mmHg 63%
    19:00 +17°C° 0 mm 2 mps 746 mmHg 69%
    20:00 +15°C° 0 mm 2 mps 746 mmHg 75%
    21:00 +13°C° 0 mm 2 mps 746 mmHg 80%
    22:00 +12°C° 0 mm 2 mps 746 mmHg 86%
    23:00 +10°C° 0 mm 2 mps 746 mmHg 86%

    4 June, Thursday

    Time Temperature Precipitation Wind Pressure Humidity
    00:00 +11°C° 0 mm 1 mps 745 mmHg 85%
    01:00 +11°C° 0 mm 1 mps 745 mmHg 85%
    02:00 +10°C° 0 mm 1 mps 745 mmHg 85%
    03:00 +9°C° 0 mm 2 mps 744 mmHg 85%
    04:00 +9°C° 0 mm 2 mps 744 mmHg 85%
    05:00 +12°C° 0 mm 2 mps 744 mmHg 82%
    06:00 +13°C° 0 mm 2 mps 744 mmHg 78%
    07:00 +14°C° 0 mm 2 mps 743 mmHg 75%
    08:00 +16°C° 0 mm 2 mps 743 mmHg 70%
    09:00 +18°C° 0 mm 2 mps 743 mmHg 66%
    10:00 +19°C° 0 mm 2 mps 742 mmHg 61%
    11:00 +18°C° 1.6 mm 2 mps 742 mmHg 72%
    12:00 +17°C° 1.6 mm 2 mps 741 mmHg 83%
    13:00 +15°C° 1.6 mm 2 mps 741 mmHg 94%
    14:00 +15°C° 0.8 mm 2 mps 741 mmHg 93%
    15:00 +16°C° 0.8 mm 2 mps 741 mmHg 92%
    16:00 +16°C° 0.8 mm 2 mps 740 mmHg 91%
    17:00 +14°C° 0.4 mm 3 mps 740 mmHg 91%
    18:00 +14°C° 0.4 mm 4 mps 740 mmHg 92%
    19:00 +14°C° 0.4 mm 5 mps 740 mmHg 92%
    20:00 +13°C° 0 mm 5 mps 740 mmHg 92%
    21:00 +12°C° 0 mm 5 mps 741 mmHg 93%
    22:00 +9°C° 0 mm 5 mps 741 mmHg 93%
    23:00 +9°C° 0 mm 5 mps 741 mmHg 94%

    5 June, Friday

    Time Temperature Precipitation Wind Pressure Humidity
    00:00 +8°C° 0 mm 5 mps 742 mmHg 94%
    01:00 +7°C° 0 mm 4 mps 742 mmHg 95%
    02:00 +7°C° 0 mm 5 mps 742 mmHg 94%
    03:00 +7°C° 0 mm 5 mps 742 mmHg 94%
    04:00 +7°C° 0 mm 6 mps 743 mmHg 93%
    05:00 +8°C° 0 mm 6 mps 743 mmHg 88%
    06:00 +8°C° 0 mm 6 mps 744 mmHg 83%
    07:00 +9°C° 0 mm 6 mps 744 mmHg 77%
    08:00 +9°C° 0 mm 6 mps 744 mmHg 75%
    09:00 +10°C° 0 mm 6 mps 745 mmHg 72%
    10:00 +11°C° 0 mm 6 mps 745 mmHg 69%
    11:00 +13°C° 0.1 mm 6 mps 745 mmHg 66%
    12:00 +14°C° 0.1 mm 6 mps 745 mmHg 63%
    13:00 +16°C° 0.1 mm 6 mps 745 mmHg 60%
    14:00 +16°C° 0.1 mm 6 mps 744 mmHg 59%
    15:00 +16°C° 0.1 mm 5 mps 744 mmHg 58%
    16:00 +16°C° 0.1 mm 5 mps 744 mmHg 57%
    17:00 +15°C° 0 mm 4 mps 744 mmHg 61%
    18:00 +15°C° 0 mm 4 mps 743 mmHg 65%
    19:00 +14°C° 0 mm 3 mps 743 mmHg 69%
    20:00 +14°C° 0 mm 3 mps 743 mmHg 70%
    21:00 +13°C° 0 mm 4 mps 743 mmHg 70%
    22:00 +13°C° 0 mm 4 mps 743 mmHg 70%
    23:00 +13°C° 0 mm 4 mps 743 mmHg 73%
    Show more